Hourly Data Report for September 30, 2017

All times are specified in Local Standard Time (LST). Add 1 hour to adjust for Daylight Saving Time where and when it is observed.

GJOA HAVEN A
NUNAVUT

68°38'08.000" N
95°51'01.000" W
46.90 m
2302337
71597
YHK

Related Data

No related data is available for this station

Download Data

Hourly Data (September 2017)
Hourly Data Report for September 30, 2017
Temp Definition
°C
Dew Point Temp Definition
°C
Rel Hum Definition
%
Wind Dir Definition
10's deg

Wind Spd Definition
km/h
Visibility Definition
km
Stn Press Definition
kPa
Hmdx Definition


Wind Chill Definition


Weather Definition


TIME
00:00 Legend Double Dagger -3.1 -7.1 74 3 37 16.1 100.43   -11 LegendNANA
01:00 Legend Double Dagger -4.2 -8.0 75 3 37 16.1 100.54   -13 LegendNANA
02:00 Legend Double Dagger -5.3 -7.9 82 1 22 16.1 100.68   -12 LegendNANA
03:00 Legend Double Dagger -4.9 -7.2 84 36 30 16.1 100.76   -13 LegendNANA
04:00 Legend Double Dagger -6.0 -8.1 85 36 22 16.1 100.89   -13 LegendNANA
05:00 Legend Double Dagger -6.8 -8.9 85 36 17 16.1 100.92   -13 LegendNANA
06:00 Legend Double Dagger -7.1 -10.0 80 35 17 16.1 100.99   -14 LegendNANA
07:00 Legend Double Dagger -6.7 -9.6 80 34 15 16.1 101.06   -13 LegendNANA
08:00 Legend Double Dagger -5.4 -8.1 82 36 17 16.1 101.12   -11 LegendNANA
09:00 Legend Double Dagger -4.0 -6.7 82 36 15 16.1 101.19   -9 LegendNANA
10:00 Legend Double Dagger -3.3 -6.0 81 35 18 16.1 101.24   -9 LegendNANA
11:00 Legend Double Dagger -2.9 -6.3 78 35 13 16.1 101.31   -8 LegendNANA
12:00 Legend Double Dagger -2.9 -5.9 80 33 17 16.1 101.37   -8 LegendNANA
13:00 Legend Double Dagger -2.8 -5.8 80 1 13 16.1 101.39   -7 LegendNANA
14:00 Legend Double Dagger -2.9 -5.4 83 34 13 16.1 101.42   -8 LegendNANA
15:00 Legend Double Dagger -3.4 -5.3 87 33 8 16.1 101.47   -7 LegendNANA
16:00 Legend Double Dagger -4.4 -5.2 94 33 17 16.1 101.49   -10 LegendNANA
17:00 Legend Double Dagger -5.1 -5.6 96 32 15 16.1 101.55   -11 LegendNANA
18:00 Legend Double Dagger -5.7 -6.1 97 31 9 16.1 101.55   -10 LegendNANA
19:00 Legend Double Dagger -6.1 -6.4 98   0 8.1 101.58     Fog
20:00 Legend Double Dagger -6.3 -6.6 98 27 9 1.0 101.58   -11 Fog
21:00 Legend Double Dagger -7.0 -7.4 97 30 9 1.2 101.61   -11 Fog
22:00 Legend Double Dagger -7.7 -8.1 97 26 5 1.2 101.61   -10 Fog
23:00 Legend Double Dagger -7.4 -7.9 96 29 9 16.1 101.63   -12 LegendNANA

Notes on Data Quality.

Legend

  • E = Estimated
  • M = Missing
  • NA = Not Available
  • ‡ = Partner data that is not subject to review by the National Climate Archives
Date modified: